Location: Godzisko
(49.9648°N, 19.4576°E)
Time: 07:42:03
(UTC+00:00)

Cosmos 1300 Rocket - Pass Details

Date: 20 April 2021
Orbit: 603 x 625 km, 82.5° (Epoch: 06 May)

Event Time Altitude Azimuth Distance (km) Brightness Sun altitude
Rises 01:35:54 0° 351° (N) 2,923 7.5 -17.6°
Reaches altitude 10° 01:38:09 10° 354° (N) 2,012 6.7 -17.3°
Maximum altitude 01:42:36 70° 78° (ENE) 669 3.8 -16.8°
Drops below altitude 10° 01:47:01 10° 163° (SSE) 1,994 5.9 -16.3°
Enters shadow 01:48:09 - 165° (SSE) 2,445 6.4 -16.2°
